CW0730 Weather Reports


time (UTC)temp
C
wind
direction
speed
KPH
gust
KPH
rain 1hr
cm
rain 24hr
cm
rain mn
cm
humidity
%
barometer
mb
20260507134555 11 291 4.8 9.7 0.00 2.18 0.71 75 1002.5
20260507133048 10 293 4.8 14.5 0.00 2.18 0.71 77 1002.8
20260507131603 10 333 6.4 16.1 0.00 2.18 0.71 80 1002.8
20260507130041 10 317 8.0 16.1 0.00 2.18 0.71 84 1002.6
20260507124535 9 293 6.4 12.9 0.00 2.18 0.71 86 1002.8
20260507123032 9 290 8.0 14.5 0.00 2.18 0.71 87 1002.5
20260507121529 8 312 6.4 12.9 0.00 2.18 0.71 90 1002.6
20260507120025 8 285 4.8 9.7 0.00 2.18 0.71 92 1002.8
20260507114523 8 264 4.8 9.7 0.00 2.18 0.71 96 1003.3
20260507113020 7 277 3.2 9.7 0.00 2.18 0.71 96 1003.2
20260507111518 7 287 1.6 9.7 0.00 2.18 0.71 96 1003.3
20260507110016 7 313 4.8 11.3 0.00 2.18 0.71 97 1003.2
20260507104515 7 276 4.8 9.7 0.00 2.18 0.71 98 1003.1
20260507103025 7 297 3.2 9.7 0.00 2.18 0.71 99 1002.5
20260507101512 7 293 3.2 9.7 0.00 2.18 0.71 99 1002.6
20260507100010 7 306 3.2 6.4 0.00 2.18 0.71 99 1002.1
20260507094511 7 282 4.8 9.7 0.00 2.18 0.71 99 1002.3
20260507093008 7 305 4.8 9.7 0.00 2.18 0.71 100 1002.1
20260507091506 7 294 0.0 9.7 0.00 2.18 0.71 100 1002.6
20260507090006 7 259 3.2 8.0 0.00 2.18 0.71 99 1002.8
20260507084505 7 321 6.4 14.5 0.00 2.18 0.71 99 1002.2
20260507083004 7 319 8.0 20.9 0.00 2.18 0.71 99 1002.0
20260507081503 7 305 11.3 25.7 0.00 2.18 0.71 99 1001.7
20260507080002 8 304 8.0 17.7 0.00 2.18 0.71 100 1002.0
20260507074500 8 303 9.7 19.3 0.03 2.18 0.71 100 1001.9
20260507073100 8 259 4.8 14.5 0.05 2.18 0.71 100 1001.8
20260507071611 8 312 4.8 14.5 0.05 2.18 0.71 100 1001.6
20260507070100 8 352 6.4 16.1 0.05 2.18 0.71 100 1001.6
20260507064600 8 342 1.6 12.9 0.18 2.16 0.69 100 1001.2
20260507063101 8 309 1.6 8.0 0.53 2.13 0.66 100 1001.6
20260507061600 8 340 4.8 12.9 0.64 2.13 0.66 100 1001.2
20260507060059 8 302 6.4 24.1 0.64 2.13 0.66 100 1001.1
20260507054602 9 327 9.7 33.8 0.48 1.98 0.51 100 1001.3
20260507053124 8 209 17.7 27.4 0.08 1.57 0.10 100 1001.9
20260507051601 8 179 4.8 12.9 0.00 1.50 0.03 100 1000.7
20260507050051 8 199 9.7 16.1 0.03 1.50 0.03 100 1000.8
20260507044555 7 191 14.5 29.0 0.03 1.50 0.03 100 1000.7
20260507043047 8 190 20.9 37.0 0.03 1.50 0.03 100 1000.9
20260507041546 8 184 20.9 43.5 0.03 1.50 0.03 100 1000.5
20260507040043 8 195 27.4 46.7 0.00 1.45 0.00 100 1000.7
20260507034540 8 185 29.0 49.9 0.00 1.45 1.45 100 1000.9
20260507033044 8 158 30.6 45.1 0.00 1.45 1.45 100 1000.7
20260507031538 8 179 27.4 51.5 0.00 1.45 1.45 100 1001.0
20260507030037 8 196 29.0 49.9 0.03 1.45 1.45 100 1001.2
20260507024537 8 184 24.1 43.5 0.05 1.45 1.45 100 1001.7
20260507023035 8 166 25.7 40.2 0.10 1.45 1.45 100 1002.0
20260507021528 8 190 27.4 40.2 0.18 1.45 1.45 100 1002.3
20260507020027 8 176 27.4 38.6 0.33 1.42 1.42 100 1002.4
20260507014525 9 186 27.4 38.6 0.36 1.42 1.42 100 1002.6
20260507013023 8 189 22.5 33.8 0.41 1.37 1.37 100 1002.9
20260507011532 8 203 19.3 27.4 0.38 1.30 1.30 100 1003.1
20260507010025 8 186 17.7 29.0 0.30 1.12 1.12 100 1003.2
20260507004524 9 202 20.9 40.2 0.38 1.07 1.07 100 1003.5
20260507003019 9 205 27.4 37.0 0.36 0.97 0.97 99 1003.6
20260507001518 11 166 17.7 33.8 0.36 0.89 0.89 100 1003.5
20260507000018 11 174 30.6 49.9 0.38 0.79 0.79 100 1003.4
20260506234517 11 184 22.5 41.8 0.36 0.69 0.69 100 1003.7
20260506233015 10 167 27.4 43.5 0.36 0.61 0.61 100 1003.8
20260506231514 9 152 19.3 41.8 0.30 0.53 0.53 100 1003.9
20260506230014 9 158 27.4 40.2 0.23 0.41 0.41 100 1004.3
20260506224512 9 188 27.4 45.1 0.18 0.33 0.33 99 1004.3
20260506223008 9 164 16.1 37.0 0.15 0.25 0.25 99 1004.5
20260506221510 9 184 24.1 32.2 0.18 0.23 0.23 98 1004.6
20260506220018 10 168 27.4 40.2 0.13 0.18 0.18 99 1004.5
20260506214507 9 147 25.7 41.8 0.15 0.15 0.15 99 1004.9
20260506213004 9 195 30.6 41.8 0.10 0.10 0.10 98 1005.2
20260506211502 9 160 20.9 33.8 0.05 0.05 0.05 98 1005.2
20260506210005 10 169 29.0 43.5 0.05 0.05 0.05 97 1005.3
20260506204502 10 168 32.2 53.1 0.00 0.00 0.00 97 1005.2
20260506203001 10 177 29.0 48.3 0.00 0.00 0.00 96 1005.4
20260506201502 10 184 27.4 48.3 0.00 0.00 0.00 95 1005.5
20260506200000 10 165 25.7 45.1 0.00 0.00 0.00 95 1004.9
20260506194608 10 175 19.3 33.8 0.00 0.00 0.00 95 1005.3
20260506193101 10 181 20.9 41.8 0.00 0.00 0.00 95 1005.2
20260506191608 10 151 19.3 35.4 0.00 0.00 0.00 95 1005.3
20260506190058 10 182 22.5 37.0 0.00 0.00 0.00 95 1005.7
20260506190005 10 160 24.1 40.2 0.00 0.00 0.00 95 1005.7
20260506184558 10 161 24.1 40.2 0.00 0.00 0.00 95 1005.7
20260506183111 10 158 29.0 43.5 0.00 0.00 0.00 95 1005.7
20260506181601 10 158 25.7 51.5 0.00 0.00 0.00 95 1005.8
20260506180114 10 155 27.4 41.8 0.00 0.00 0.00 95 1005.9
20260506174554 10 167 19.3 38.6 0.00 0.00 0.00 94 1006.0
20260506173124 11 171 24.1 41.8 0.00 0.00 0.00 94 1006.3
20260506171554 11 174 29.0 49.9 0.00 0.00 0.00 94 1006.4
20260506170054 11 170 27.4 43.5 0.00 0.00 0.00 93 1006.6
20260506164555 11 165 24.1 43.5 0.00 0.00 0.00 93 1006.7
20260506163100 11 153 29.0 46.7 0.00 0.00 0.00 93 1007.0
20260506161556 11 190 37.0 53.1 0.00 0.00 0.00 94 1007.1
20260506160052 11 189 29.0 46.7 0.00 0.00 0.00 93 1007.1
20260506154552 11 179 27.4 49.9 0.00 0.00 0.00 95 1007.2
20260506153050 11 181 30.6 45.1 0.00 0.00 0.00 94 1006.8
20260506151551 11 172 32.2 48.3 0.00 0.00 0.00 94 1006.7
20260506150056 11 200 20.9 46.7 0.00 0.00 0.00 94 1007.0
20260506144651 11 178 20.9 40.2 0.00 0.00 0.00 96 1007.5
20260506143046 10 198 22.5 45.1 0.00 0.00 0.00 97 1007.7
20260506141545 10 202 24.1 43.5 0.00 0.00 0.00 97 1007.9
20260506140045 10 189 24.1 38.6 0.00 0.00 0.00 96 1007.6